Regional Weather Roundup
Issued by NWS

Home | Current Version | Previous Version | Text Only | Print | Product List | Glossary On
Versions: 1 2 3 4 5 6 7 8 9 10 11 12 13 14 15 16 17 18 19 20 21 22 23 24 25 26 27 28 29 30 31 32 33 34 35 36 37 38 39 40 41 42 43 44 45 46 47 48 49 50
000
ASUS42 KFFC 301403
RWRGA
WEATHER ROUNDUP FOR GEORGIA
NATIONAL WEATHER SERVICE PEACHTREE CITY GA
1000 AM EDT TUE JUN 30 2015

NOTE: "FAIR" INDICATES FEW OR NO CLOUDS BELOW 12,000 FEET WITH NO
SIGNIFICANT WEATHER AND/OR OBSTRUCTIONS TO VISIBILITY.

* = USE WITH CAUTION. THE STATIONS MARKED WITH AN ASTERISK MAY NOT
REPORT WEATHER SUCH AS PRECIPITATION, FOG, OR THUNDER AND ARE NOT
QUALITY CONTROLLED BY NWS.

THE REMARK "TC" DENOTES TEMPERATURE READING IN DEGREES CELSIUS.

GAZ001>058-301500-
NORTH GEORGIA

CITY           SKY/WX    TMP DP  RH WIND       PRES   REMARKS
ATLANTA        MOSUNNY   79  70  74 W8        30.03R
ATHENS         SUNNY     82  69  64 MISG      30.02R
CHAMBLEE       MOSUNNY   79  70  74 VRB5      30.03S
PEACHTREE CITY PTSUNNY   77  71  82 SW8       30.04R
ROME           PTSUNNY   77  71  82 SW8       30.00R
WEST ATLANTA   MOSUNNY   77  70  79 VRB3      30.03R
GAINESVILLE    MOSUNNY   80  69  69 W9        30.05R
CARTERSVILLE   MOSUNNY   80  70  71 VRB6      30.02R


CITY           SKY/WX    TMP DP  RH WIND       PRES   REMARKS
DALTON*        PTSUNNY   75  70  83 SE6       30.00S
LAWRENCEVILLE* MOSUNNY   79  64  61 W6        30.02R
MARIETTA       PTSUNNY   80  71  73 W10       30.03S
BLAIRSVILLE*   LGT RAIN  68  58  71 S3        30.07F
$$

GAZ059>098-102>109-301500-
CENTRAL GEORGIA

CITY           SKY/WX    TMP DP  RH WIND       PRES   REMARKS
AUGUSTA-BUSH   SUNNY     82  69  64 SW6       30.00S
AUGUSTA-DANIEL SUNNY     83  68  60 VRB6      30.02S
COLUMBUS       MOSUNNY   79  71  76 W8        30.03R
MACON          SUNNY     82  72  71 W8        30.02S
ROBINS AFB     SUNNY     82  72  71 VRB3      30.01S


CITY           SKY/WX    TMP DP  RH WIND       PRES   REMARKS
LAGRANGE*      PTSUNNY   82  78  89 W7        30.04R HX  91
SYLVANIA*      SUNNY     84  75  73 W6        30.03F HX  92
MILLEDGEVILLE* SUNNY     81  70  69 CALM      30.01S
$$

GAZ099>101-110>166-301500-
SOUTH GEORGIA

CITY           SKY/WX    TMP DP  RH WIND       PRES   REMARKS
SAVANNAH       CLOUDY    84  71  65 W8        30.03F
VALDOSTA       MOSUNNY   83  76  79 VRB5      30.06F HX  91
ALMA           SUNNY     82  73  74 W8        30.05F
ST SIMONS      MOSUNNY   81  73  76 VRB6      30.06F
FT STEWART     SUNNY     82  72  71 SW6       30.02F
ALBANY         PTSUNNY   82  75  79 W9        30.06S
HUNTER AFB     SUNNY     84  74  73 W6        30.01F HX  91
MOODY AFB      CLOUDY    81  75  83 SW10      30.05S
BRUNSWICK      MOSUNNY   81  73  78 W6        30.07S


CITY           SKY/WX    TMP DP  RH WIND       PRES   REMARKS
BAINBRIDGE*    MOSUNNY   84  79  84 W14       30.06R HX  96
MOULTRIE*      PTSUNNY   81  77  89 SW7       30.07R
VIDALIA*       SUNNY     81  72  74 W8        30.04S
WAYCROSS*      SUNNY     85  77  76 W9        30.05F HX  96
DOUGLAS*       PTSUNNY   82  73  74 W9        30.06F
$$



USA.gov is the U.S. government's official web portal to all federal, state and local government web resources and services.